Content
SEND FEEDBACK

Daily
Averages
Monthly
Summary
South Korea

HWASU-DONG, SOUTH KOREA


Home > Asia > South Korea
Elevation: 49 feet     Latitude: 37 02N     Longitude: 126 45E

WEATHER
 
SELECT A DAY
Number of Records: 205,377;   Date Range: 7/1/96 - 12/17/14
 
SHARE

PRINT THIS DATA

[ ← Previous Day ]
WEATHER ALMANAC - JANUARY 23, 2013
[ Next Day → ]
[ °C ]   °F
Weather ElementAverageHighLow
Temperature35.6 °F37.9 °F (1:55 pm)33.8 °F (3:20 am)
Dewpoint35.6 °F37.9 °F (1:55 pm)33.8 °F (3:20 am)
Humidity100 %100 % (1:33 am)99 % (6:55 pm)
Barometer30.09 in30.16 in (1:33 am)30.04 in (2:12 pm)
Wind Speed4.8 mph10.4 mph (1:21 pm)
Weather ElementAverage
Visibility3.2 mi
Wind DirectionSSE (157 °)

Weather ElementTotal
Precipitation0.03 in
Heating Degree Days29.2 (Base 65)
Averaged from 40 records on January 23, 2013
WEATHER CONDITIONS BREAKOUT
WIND DIRECTION BREAKOUT
WEATHER BY HOUR - JANUARY 23, 2013
[ °C ]   °F
Local TimeTemperatureDewpointHumidityBarometerVisibilityWind DirectionWind SpeedGust SpeedPrecipitationEventsConditions
1:33 AM35.6 °F35.6 °F100 %30.16 in1.2 miCalmOvercast
1:35 AM35.6 °F35.6 °F100 %30.16 in1.0 miCalmOvercast
1:55 AM35.2 °F35.2 °F100 %30.16 in0.8 miCalmOvercast
2:07 AM35.6 °F35.6 °F100 %30.16 in1.5 miCalmOvercast
2:55 AM34.5 °F34.5 °F100 %30.15 in1.8 miCalmOvercast
3:20 AM33.8 °F33.8 °F100 %30.14 in1.5 miCalmOvercast
3:55 AM34.2 °F34.2 °F100 %30.13 in1.5 miCalmOvercast
4:09 AM33.8 °F33.8 °F100 %30.12 in1.5 miENE (60°)3.5 mphOvercast
4:46 AM33.8 °F33.8 °F100 %30.11 in4.0 miEast (90°)4.6 mphOvercast
4:55 AM34.3 °F34.3 °F100 %30.11 in4.0 miEast (80°)4.6 mphOvercast
5:55 AM34.5 °F34.5 °F100 %30.09 in5.0 miEast (80°)4.6 mphOvercast
6:55 AM34.9 °F34.9 °F100 %30.10 in6.0 miEast (100°)3.5 mphScattered Clouds
7:03 AM35.6 °F35.6 °F100 %30.10 in6.0 miEast (100°)3.5 mphMostly Cloudy
7:55 AM35.1 °F35.1 °F100 %30.10 in4.0 miEast (80°)3.5 mph0.01 inMostly Cloudy
8:26 AM35.6 °F35.6 °F100 %30.10 in2.0 miEast (90°)3.5 mphLight Drizzle
8:55 AM34.9 °F34.9 °F100 %30.10 in2.0 miEast (90°)3.5 mphMostly Cloudy
9:55 AM35.2 °F35.2 °F100 %30.10 in2.0 miCalm0.01 inLight Drizzle
10:42 AM37.4 °F37.4 °F100 %30.10 in2.0 miVariable5.8 mphOvercast
10:55 AM36.7 °F36.7 °F100 %30.10 in2.0 miSSE (150°)5.8 mph0.01 inOvercast
11:55 AM37.2 °F37.2 °F100 %30.09 in2.0 miSouth (180°)8.1 mphOvercast
12:46 PM37.4 °F37.4 °F100 %30.06 in2.0 miWSW (240°)5.8 mphLight Drizzle
12:55 PM37.4 °F37.4 °F100 %30.06 in1.8 miWSW (240°)8.1 mphLight Drizzle
1:21 PM37.4 °F37.4 °F100 %30.05 in2.0 miWest (270°)10.4 mphLight Drizzle
1:55 PM37.9 °F37.9 °F100 %30.05 in2.0 miWest (280°)10.4 mphLight Drizzle
2:12 PM37.4 °F37.4 °F100 %30.04 in2.0 miWest (280°)6.9 mphOvercast
2:29 PM37.4 °F37.4 °F100 %30.04 in2.8 miWest (270°)9.2 mphOvercast
2:55 PM37.6 °F37.6 °F100 %30.04 in2.0 miWNW (290°)9.2 mphOvercast
3:55 PM36.7 °F36.7 °F100 %30.04 inWest (280°)9.2 mphOvercast
4:55 PM36.1 °F36.1 °F100 %30.05 inWNW (290°)5.8 mphMostly Cloudy
5:24 PM35.6 °F35.6 °F100 %30.06 inWest (280°)4.6 mphMostly Cloudy
5:55 PM35.6 °F35.6 °F100 %30.06 in2.0 miWSW (240°)4.6 mphMostly Cloudy
6:16 PM35.6 °F35.6 °F100 %30.06 in5.0 miWest (260°)6.9 mphMostly Cloudy
6:24 PM35.6 °F35.6 °F100 %30.06 in5.0 miWest (260°)5.8 mphMostly Cloudy
6:55 PM35.2 °F35.1 °F99 %30.07 in5.0 miWNW (290°)5.8 mphOvercast
7:55 PM34.5 °F34.5 °F100 %30.08 in6.0 miWSW (240°)4.6 mphOvercast
8:16 PM35.6 °F35.6 °F100 %30.08 in6.0 miWSW (240°)5.8 mphMostly Cloudy
8:55 PM34.5 °F34.5 °F100 %30.08 in6.0 miWSW (250°)5.8 mphOvercast
9:55 PM34.2 °F34.2 °F100 %30.09 in6.2 miWSW (240°)5.8 mphOvercast
10:55 PM34.3 °F34.3 °F100 %30.07 in6.2 miSW (220°)6.9 mphOvercast
11:55 PM34.0 °F34.0 °F100 %30.07 in6.2 miSW (220°)4.6 mphOvercast
Hourly data recorded from RKSO, located miles away from Hwasu-dong, South Korea







STORIES FROM OUR PARTNERS